DELTA 1 DEB

Satellite information

Favourite Embed

Satellite Type and Status

DEBRISIN ORBIT

Key statistics

Satellite DELTA 1 DEB at a glance.

Uptime

17230

Days in orbit

Revolutions

≈ 14.4

Per day

Orbit

SSO

Sun Synchronous Orbit

Inclination

98.6

Latest

Satellite identification and parameters

Extended collection of information and parameters for DELTA 1 DEB.

Object identification

Identified? True

Debris? True

Object name: DELTA 1 DEB

International designator: 1978-026HS

Object number (NORAD): 20029

Object ID (CCSDS): 20029

Country: UNITED STATES OF AMERICA (US)

Current information (Y/N): Y

RCS size: SMALL

Orbital parameters

Period: 99.782 minutes

Inclination: 98.6075 deg

SMA: 7126.249 km

Apoapsis: 792.144 km

Periapsis: 704.084 km

RAAN: 140.398 deg

Eccentricy: 0.0061786

Argument of periapsis: 124.6304 deg

Mean anomaly: 52.0736 deg

Mean motion: 14.43149339 rev/day

Mean motion (dot): 0.00001806 rev/day2

B* drag term: 0.00053889 1/REarth

Two-line elements (TLE)

Creation date: May 6, 2025, 3:54 a.m.

Reference frame: TEME

Reference center: EARTH

Epoch: May 5, 2025, 6:51 p.m. UTC

TLE line 0: 0 DELTA 1 DEB

TLE line 1: 1 20029U 78026HS 25125.78546647 .00001806 00000-0 53889-3 0 9999

TLE line 2: 2 20029 98.6075 140.3980 0061786 124.6304 52.0736 14.43149339882544

Live tracking on map

Real-time ground track for satellite DELTA 1 DEB.

In-orbit conjunctions

A list of the most updated potential collisions computed for object DELTA 1 DEB.

Target Orbit TCA Probability of collision Miss distance Type
COSMOS 1867 COOLANT LEO 2025-03-10 07:58:40 0.0001527299 204.0 (m) DEBRIS
IRIDIUM 63 LEO 2024-10-27 05:44:42 0.0001253068 450.0 (m) PAYLOAD
COSMOS 836 LEO 2024-08-13 03:17:02 0.0003193973 766.0 (m) PAYLOAD

Associated space launch

Earth observation satellite

DELTA 1 DEB was lifted into orbit during the mission ‘Delta 2910 | Landsat 3’, on board a Delta 2910 space rocket.

The launch took place on March 5, 1978, 5:54 p.m. from Space Launch Complex 2W.

For more information about the launch, click the button.

Launch to space Delta 2910 | Landsat 3
Delta 2910 | Landsat 3

Agency: N/A

Status: Launch Successful

Launch date: March 5, 1978, 5:54 p.m. UTC

Rocket: Delta 2910

Launch pad: Space Launch Complex 2W

Location: Vandenberg SFB, CA, USA

...

Latest news about this satellite

There are no fresh news available about this satellite. Check back as we update our databases every day.


Newsletter sign-up

Weekly statistics, charts and insights to help you stay on top of the space industry.